LNCHL LIRQ-ENBR

Flight info

Callsign LNCHL
Flight time 2h 33m
Altitude 18000
Route OKMAP Q125 OMAKU/N0458F380 DCT BOA DCT BRENO DCT KONIN DCT EXITI/N0452F400 DCT ATTUS DCT BADAB
Aircraft CL60/M-SBDE1E2E3FGHIJ1J4J5J7M3RWXYZ/LB1V1D1

Departure

Time 2026-04-23 08:45
Airport Florence Airport, Peretola (LIRQ)

Arrival

Time 2026-04-23 11:19
Airport Bergen Airport, Flesland (ENBR)
Time Latitude Longitude Altitude Speed Heading
2026-04-23 07:55 43.80695 11.19512 129 ft 0 kts 274°
2026-04-23 08:39 43.80695 11.19511 133 ft 0 kts 275°
2026-04-23 08:39 43.80708 11.19504 133 ft 2 kts 39°
2026-04-23 08:39 43.80725 11.19542 133 ft 6 kts 82°
2026-04-23 08:40 43.80697 11.19603 133 ft 9 kts 138°
2026-04-23 08:40 43.80642 11.19671 133 ft 12 kts 138°
2026-04-23 08:40 43.80576 11.19760 133 ft 14 kts 119°
2026-04-23 08:40 43.80601 11.19887 133 ft 16 kts 47°
2026-04-23 08:41 43.80687 11.20017 133 ft 19 kts 47°
2026-04-23 08:41 43.80779 11.20158 133 ft 20 kts 47°
2026-04-23 08:41 43.80880 11.20313 133 ft 22 kts 49°
2026-04-23 08:41 43.80987 11.20481 133 ft 23 kts 48°
2026-04-23 08:42 43.81096 11.20649 136 ft 23 kts 48°
2026-04-23 08:42 43.81209 11.20824 137 ft 24 kts 47°
2026-04-23 08:42 43.81267 11.20988 139 ft 14 kts 94°
2026-04-23 08:42 43.81261 11.21122 139 ft 14 kts 94°
2026-04-23 08:43 43.81278 11.21246 139 ft 11 kts 51°
2026-04-23 08:43 43.81324 11.21319 139 ft 8 kts 48°
2026-04-23 08:43 43.81359 11.21368 140 ft 5 kts 37°
2026-04-23 08:43 43.81400 11.21382 141 ft 7 kts 348°
2026-04-23 08:44 43.81465 11.21355 140 ft 11 kts 342°
2026-04-23 08:44 43.81515 11.21321 140 ft 4 kts 293°
2026-04-23 08:44 43.81517 11.21311 140 ft 0 kts 274°
2026-04-23 08:44 43.81509 11.21288 140 ft 3 kts 229°
2026-04-23 08:45 43.81507 11.21283 140 ft 10 kts 229°
2026-04-23 08:45 43.81184 11.20781 137 ft 121 kts 227°
2026-04-23 08:45 43.80474 11.19689 396 ft 174 kts 227°
2026-04-23 08:45 43.79715 11.18261 1119 ft 202 kts 245°
2026-04-23 08:46 43.79515 11.16292 2039 ft 220 kts 278°
2026-04-23 08:46 43.79686 11.14164 3181 ft 233 kts 280°
2026-04-23 08:46 43.79900 11.11914 4089 ft 244 kts 281°
2026-04-23 08:46 43.80110 11.09620 4838 ft 238 kts 281°
2026-04-23 08:47 43.80290 11.07413 5601 ft 230 kts 281°
2026-04-23 08:47 43.80448 11.05251 6362 ft 227 kts 281°
2026-04-23 08:47 43.80601 11.03076 7110 ft 229 kts 283°
2026-04-23 08:47 43.81187 11.01116 7859 ft 224 kts 321°
2026-04-23 08:48 43.82509 11.00074 8885 ft 219 kts 353°
2026-04-23 08:48 43.83949 11.00021 10126 ft 213 kts 15°
2026-04-23 08:48 43.85278 11.00824 11309 ft 214 kts 38°
2026-04-23 08:48 43.86226 11.02391 12402 ft 222 kts 59°
2026-04-23 08:49 43.86896 11.04279 13479 ft 227 kts 61°
2026-04-23 08:49 43.87577 11.06221 14562 ft 231 kts 62°
2026-04-23 08:49 43.88284 11.08227 15659 ft 233 kts 62°
2026-04-23 08:49 43.88981 11.10209 16693 ft 236 kts 63°
2026-04-23 08:50 43.89690 11.12225 17694 ft 237 kts 63°
2026-04-23 08:50 43.90412 11.14280 18644 ft 240 kts 64°
2026-04-23 08:50 43.91137 11.16342 19550 ft 243 kts 64°
2026-04-23 08:50 43.91868 11.18424 20471 ft 244 kts 64°
2026-04-23 08:51 43.92615 11.20551 21339 ft 247 kts 64°
2026-04-23 08:51 43.93358 11.22668 22186 ft 249 kts 64°
2026-04-23 08:51 43.94126 11.24814 22999 ft 251 kts 60°
2026-04-23 08:51 43.95253 11.26659 23728 ft 260 kts 40°
2026-04-23 08:52 43.96953 11.27877 23852 ft 293 kts 25°
2026-04-23 08:52 43.98967 11.28845 23870 ft 322 kts 24°
2026-04-23 08:52 44.01154 11.29898 24029 ft 343 kts 24°
2026-04-23 08:52 44.03422 11.30989 24516 ft 353 kts 24°
2026-04-23 08:53 44.05722 11.32223 25177 ft 355 kts 29°
2026-04-23 08:53 44.07945 11.33791 25840 ft 358 kts 31°
2026-04-23 08:53 44.10151 11.35384 26485 ft 362 kts 31°
2026-04-23 08:53 44.12432 11.36985 27104 ft 367 kts 27°
2026-04-23 08:54 44.14949 11.37999 27665 ft 381 kts 13°
2026-04-23 08:54 44.17670 11.37942 28189 ft 396 kts 358°
2026-04-23 08:54 44.20425 11.37280 28686 ft 402 kts 355°
2026-04-23 08:54 44.23167 11.36604 29200 ft 405 kts 356°
2026-04-23 08:55 44.25955 11.35921 29701 ft 408 kts 356°
2026-04-23 08:55 44.28793 11.35225 30165 ft 412 kts 356°
2026-04-23 08:55 44.31608 11.34534 30607 ft 415 kts 356°
2026-04-23 08:55 44.34468 11.33832 31022 ft 418 kts 356°
2026-04-23 08:56 44.37354 11.33122 31374 ft 422 kts 356°
2026-04-23 08:56 44.40260 11.32406 31811 ft 422 kts 356°
2026-04-23 08:56 44.43152 11.31694 32187 ft 423 kts 355°
2026-04-23 08:56 44.46037 11.30983 32487 ft 427 kts 355°
2026-04-23 08:57 44.48960 11.30262 32812 ft 428 kts 355°
2026-04-23 08:57 44.51884 11.29543 33150 ft 429 kts 356°
2026-04-23 08:57 44.54869 11.29129 33431 ft 425 kts
2026-04-23 08:57 44.57821 11.29195 33698 ft 426 kts
2026-04-23 08:58 44.60784 11.29303 33940 ft 428 kts
2026-04-23 08:58 44.63732 11.29405 34288 ft 428 kts
2026-04-23 08:58 44.66721 11.29508 34635 ft 427 kts
2026-04-23 08:58 44.69694 11.29610 34966 ft 425 kts
2026-04-23 08:59 44.72625 11.29711 35271 ft 425 kts
2026-04-23 08:59 44.75589 11.29813 35571 ft 424 kts
2026-04-23 08:59 44.78510 11.29913 35832 ft 423 kts
2026-04-23 08:59 44.81451 11.30014 36087 ft 422 kts
2026-04-23 09:00 44.84401 11.30116 36333 ft 422 kts
2026-04-23 09:00 44.87335 11.30217 36604 ft 422 kts
2026-04-23 09:00 44.90266 11.30318 36912 ft 422 kts
2026-04-23 09:00 44.93200 11.30419 37161 ft 423 kts
2026-04-23 09:01 44.96097 11.30519 37440 ft 422 kts
2026-04-23 09:01 44.99020 11.30619 37693 ft 422 kts
2026-04-23 09:01 45.01951 11.30720 37939 ft 421 kts
2026-04-23 09:01 45.04894 11.30821 38200 ft 420 kts
2026-04-23 09:02 45.10792 11.31027 38254 ft 430 kts
2026-04-23 09:02 45.16799 11.31236 38258 ft 437 kts
2026-04-23 09:03 45.21896 11.31412 38278 ft 440 kts
2026-04-23 09:03 45.29019 11.31658 38276 ft 441 kts
2026-04-23 09:04 45.35135 11.31870 38261 ft 441 kts
2026-04-23 09:04 45.41264 11.32082 38261 ft 440 kts
2026-04-23 09:05 45.47360 11.32294 38263 ft 441 kts
2026-04-23 09:05 45.53470 11.32507 38261 ft 441 kts
2026-04-23 09:06 45.59635 11.32722 38255 ft 441 kts
2026-04-23 09:06 45.65754 11.32936 38249 ft 441 kts
2026-04-23 09:07 45.71872 11.33150 38237 ft 441 kts
2026-04-23 09:07 45.78008 11.33365 38247 ft 440 kts
2026-04-23 09:08 45.84093 11.33579 38230 ft 441 kts
2026-04-23 09:08 45.90246 11.33796 38222 ft 442 kts
2026-04-23 09:09 45.96373 11.34013 38229 ft 442 kts
2026-04-23 09:09 46.02484 11.34230 38214 ft 443 kts
2026-04-23 09:10 46.11735 11.34558 38214 ft 442 kts
2026-04-23 09:11 46.17873 11.34776 38247 ft 441 kts
2026-04-23 09:11 46.23995 11.34994 38241 ft 440 kts
2026-04-23 09:12 46.30090 11.35212 38259 ft 440 kts
2026-04-23 09:12 46.36228 11.35433 38262 ft 440 kts
2026-04-23 09:13 46.42322 11.35651 38281 ft 439 kts
2026-04-23 09:13 46.48403 11.35870 38268 ft 437 kts
2026-04-23 09:14 46.54470 11.36088 38264 ft 436 kts
2026-04-23 09:14 46.60559 11.36309 38284 ft 436 kts
2026-04-23 09:15 46.66606 11.36528 38306 ft 437 kts
2026-04-23 09:15 46.72684 11.36749 38286 ft 436 kts
2026-04-23 09:16 46.78705 11.36967 38264 ft 435 kts
2026-04-23 09:16 46.84761 11.37188 38286 ft 434 kts
2026-04-23 09:17 46.90801 11.37409 38273 ft 433 kts
2026-04-23 09:17 46.96819 11.37629 38284 ft 433 kts
2026-04-23 09:18 47.02855 11.37632 38300 ft 434 kts
2026-04-23 09:18 47.07864 11.37581 38328 ft 434 kts
2026-04-23 09:19 47.14931 11.37511 38328 ft 435 kts
2026-04-23 09:19 47.20983 11.37450 38295 ft 435 kts
2026-04-23 09:20 47.27021 11.37389 38306 ft 434 kts
2026-04-23 09:20 47.33055 11.37329 38316 ft 435 kts
2026-04-23 09:21 47.39108 11.37269 38333 ft 436 kts
2026-04-23 09:21 47.45202 11.37208 38338 ft 437 kts
2026-04-23 09:22 47.51271 11.37147 38316 ft 437 kts
2026-04-23 09:22 47.57332 11.37085 38326 ft 437 kts
2026-04-23 09:23 47.63397 11.37024 38316 ft 437 kts
2026-04-23 09:23 47.69454 11.36963 38322 ft 437 kts
2026-04-23 09:24 47.75531 11.36901 38322 ft 437 kts
2026-04-23 09:24 47.81597 11.36840 38328 ft 438 kts
2026-04-23 09:25 47.87703 11.36826 38319 ft 437 kts
2026-04-23 09:25 47.93787 11.36966 38324 ft 437 kts
2026-04-23 09:26 47.99840 11.37103 38518 ft 438 kts
2026-04-23 09:26 48.02898 11.37173 38353 ft 440 kts
2026-04-23 09:26 48.05935 11.37241 38346 ft 438 kts
2026-04-23 09:27 48.12021 11.37377 38330 ft 436 kts
2026-04-23 09:27 48.18071 11.37514 38324 ft 436 kts
2026-04-23 09:28 48.23155 11.37628 38329 ft 436 kts
2026-04-23 09:28 48.30215 11.37788 38317 ft 437 kts
2026-04-23 09:29 48.35247 11.37901 38312 ft 437 kts
2026-04-23 09:29 48.42334 11.38061 38323 ft 437 kts
2026-04-23 09:30 48.48370 11.38198 38322 ft 437 kts
2026-04-23 09:30 48.54432 11.38335 38331 ft 437 kts
2026-04-23 09:31 48.60504 11.38473 38328 ft 437 kts
2026-04-23 09:31 48.66558 11.38611 38331 ft 437 kts
2026-04-23 09:32 48.72611 11.38750 38331 ft 437 kts
2026-04-23 09:32 48.78692 11.38889 38331 ft 437 kts
2026-04-23 09:33 48.84740 11.39028 38330 ft 437 kts
2026-04-23 09:33 48.90823 11.39168 38325 ft 437 kts
2026-04-23 09:34 48.96854 11.39308 38306 ft 437 kts
2026-04-23 09:34 49.02903 11.39448 38306 ft 436 kts
2026-04-23 09:35 49.08963 11.39588 38295 ft 436 kts
2026-04-23 09:35 49.15019 11.39729 38301 ft 436 kts
2026-04-23 09:36 49.21046 11.39870 38298 ft 436 kts
2026-04-23 09:36 49.27129 11.40013 38299 ft 436 kts
2026-04-23 09:37 49.33145 11.40154 38300 ft 436 kts
2026-04-23 09:37 49.39193 11.40296 38304 ft 435 kts
2026-04-23 09:38 49.45261 11.40439 38300 ft 435 kts
2026-04-23 09:38 49.51287 11.40582 38303 ft 435 kts
2026-04-23 09:39 49.57304 11.40095 38297 ft 442 kts 354°
2026-04-23 09:39 49.63303 11.37660 38306 ft 447 kts 349°
2026-04-23 09:40 49.68272 11.35489 38303 ft 447 kts 349°
2026-04-23 09:40 49.75257 11.32431 38297 ft 447 kts 349°
2026-04-23 09:41 49.81224 11.29812 38366 ft 447 kts 349°
2026-04-23 09:41 49.84208 11.28500 38743 ft 442 kts 349°
2026-04-23 09:41 49.87113 11.27218 39230 ft 436 kts 349°
2026-04-23 09:41 49.89989 11.25948 39639 ft 431 kts 349°
2026-04-23 09:42 49.92865 11.24678 39960 ft 429 kts 350°
2026-04-23 09:42 49.95721 11.23418 40174 ft 428 kts 349°
2026-04-23 09:42 49.98575 11.22157 40308 ft 429 kts 349°
2026-04-23 09:43 50.04377 11.19592 40305 ft 436 kts 349°
2026-04-23 09:43 50.10209 11.17007 40306 ft 442 kts 349°
2026-04-23 09:44 50.16174 11.14354 40308 ft 447 kts 349°
2026-04-23 09:44 50.22126 11.11698 40312 ft 449 kts 349°
2026-04-23 09:45 50.28115 11.09018 40309 ft 449 kts 349°
2026-04-23 09:45 50.34127 11.06320 40304 ft 448 kts 349°
2026-04-23 09:46 50.40102 11.03632 40297 ft 447 kts 349°
2026-04-23 09:46 50.46029 11.00959 40296 ft 447 kts 349°
2026-04-23 09:47 50.50913 10.98752 40296 ft 447 kts 349°
2026-04-23 09:47 50.57854 10.95607 40300 ft 447 kts 349°
2026-04-23 09:48 50.63822 10.92895 40300 ft 447 kts 349°
2026-04-23 09:48 50.69784 10.90179 40297 ft 447 kts 349°
2026-04-23 09:49 50.75758 10.87449 40297 ft 446 kts 349°
2026-04-23 09:49 50.81673 10.84740 40308 ft 446 kts 349°
2026-04-23 09:50 50.87612 10.82013 40318 ft 446 kts 349°
2026-04-23 09:50 50.92607 10.79714 40324 ft 447 kts 349°
2026-04-23 09:51 50.99556 10.76507 40324 ft 447 kts 349°
2026-04-23 09:51 51.04498 10.74219 40323 ft 447 kts 349°
2026-04-23 09:52 51.11459 10.70989 40318 ft 446 kts 349°
2026-04-23 09:52 51.17412 10.68218 40311 ft 446 kts 349°
2026-04-23 09:53 51.23338 10.65453 40313 ft 446 kts 349°
2026-04-23 09:53 51.29255 10.62684 40315 ft 445 kts 349°
2026-04-23 09:54 51.35175 10.59907 40317 ft 445 kts 349°
2026-04-23 09:54 51.41098 10.57121 40325 ft 446 kts 349°
2026-04-23 09:55 51.47037 10.54320 40310 ft 445 kts 349°
2026-04-23 09:55 51.52967 10.51515 40314 ft 444 kts 349°
2026-04-23 09:56 51.58899 10.48702 40294 ft 445 kts 349°
2026-04-23 09:56 51.64816 10.45889 40296 ft 444 kts 349°
2026-04-23 09:57 51.70736 10.43065 40290 ft 444 kts 349°
2026-04-23 09:57 51.76687 10.40221 40280 ft 445 kts 349°
2026-04-23 09:58 51.82563 10.37403 40312 ft 444 kts 349°
2026-04-23 09:58 51.88495 10.34551 40319 ft 443 kts 348°
2026-04-23 09:59 51.94392 10.31708 40313 ft 443 kts 348°
2026-04-23 09:59 52.00285 10.28860 40319 ft 444 kts 348°
2026-04-23 10:00 52.06176 10.26004 40324 ft 444 kts 348°
2026-04-23 10:00 52.12091 10.23129 40329 ft 444 kts 348°
2026-04-23 10:01 52.17027 10.20724 40327 ft 445 kts 348°
2026-04-23 10:01 52.23916 10.17357 40329 ft 444 kts 348°
2026-04-23 10:02 52.28843 10.14942 40327 ft 444 kts 348°
2026-04-23 10:02 52.34757 10.12036 40326 ft 445 kts 348°
2026-04-23 10:03 52.40690 10.09113 40321 ft 445 kts 348°
2026-04-23 10:03 52.47567 10.05715 40324 ft 445 kts 348°
2026-04-23 10:04 52.53490 10.02778 40331 ft 445 kts 348°
2026-04-23 10:04 52.59395 9.99843 40320 ft 445 kts 348°
2026-04-23 10:05 52.65289 9.96905 40322 ft 444 kts 347°
2026-04-23 10:05 52.70205 9.94448 40322 ft 445 kts 347°
2026-04-23 10:06 52.77132 9.90976 40324 ft 446 kts 347°
2026-04-23 10:06 52.83020 9.88016 40317 ft 447 kts 347°
2026-04-23 10:07 52.88983 9.85010 40318 ft 446 kts 347°
2026-04-23 10:07 52.93915 9.82516 40304 ft 447 kts 347°
2026-04-23 10:08 52.99836 9.79515 40311 ft 446 kts 347°
2026-04-23 10:08 53.06747 9.76001 40304 ft 446 kts 347°
2026-04-23 10:09 53.14639 9.71975 40311 ft 447 kts 347°
2026-04-23 10:09 53.21549 9.68436 40305 ft 448 kts 347°
2026-04-23 10:10 53.26514 9.65886 40309 ft 448 kts 347°
2026-04-23 10:10 53.33438 9.62319 40313 ft 448 kts 347°
2026-04-23 10:11 53.38383 9.59764 40315 ft 448 kts 347°
2026-04-23 10:11 53.45311 9.56175 40314 ft 448 kts 347°
2026-04-23 10:12 53.51264 9.53081 40315 ft 448 kts 347°
2026-04-23 10:12 53.57194 9.49990 40308 ft 448 kts 347°
2026-04-23 10:13 53.63154 9.46874 40310 ft 449 kts 346°
2026-04-23 10:13 53.69075 9.43770 40313 ft 449 kts 347°
2026-04-23 10:14 53.75037 9.40634 40309 ft 449 kts 346°
2026-04-23 10:14 53.80986 9.37496 40313 ft 449 kts 346°
2026-04-23 10:15 53.85964 9.34864 40302 ft 449 kts 346°
2026-04-23 10:15 53.92903 9.31183 40302 ft 449 kts 345°
2026-04-23 10:16 53.97841 9.28556 40306 ft 450 kts 345°
2026-04-23 10:16 54.04791 9.24848 40305 ft 451 kts 345°
2026-04-23 10:17 54.09791 9.22171 40307 ft 451 kts 345°
2026-04-23 10:17 54.15730 9.18984 40309 ft 450 kts 345°
2026-04-23 10:18 54.21688 9.15776 40300 ft 450 kts 345°
2026-04-23 10:18 54.28648 9.12017 40312 ft 450 kts 345°
2026-04-23 10:19 54.34582 9.08801 40302 ft 450 kts 345°
2026-04-23 10:19 54.40533 9.05566 40301 ft 450 kts 345°
2026-04-23 10:20 54.46481 9.02323 40307 ft 451 kts 345°
2026-04-23 10:20 54.52444 8.99062 40307 ft 451 kts 345°
2026-04-23 10:21 54.57434 8.96325 40296 ft 451 kts 345°
2026-04-23 10:21 54.64386 8.92500 40294 ft 451 kts 345°
2026-04-23 10:22 54.69347 8.89762 40291 ft 451 kts 345°
2026-04-23 10:22 54.76285 8.85921 40296 ft 451 kts 345°
2026-04-23 10:23 54.81214 8.83184 40308 ft 451 kts 344°
2026-04-23 10:23 54.88179 8.79304 40310 ft 451 kts 345°
2026-04-23 10:24 54.94124 8.75876 40295 ft 452 kts 343°
2026-04-23 10:24 55.00082 8.72358 40313 ft 452 kts 343°
2026-04-23 10:25 55.06017 8.68844 40312 ft 453 kts 343°
2026-04-23 10:25 55.10979 8.65898 40310 ft 453 kts 343°
2026-04-23 10:26 55.17886 8.61785 40310 ft 453 kts 343°
2026-04-23 10:26 55.23831 8.58234 40302 ft 453 kts 343°
2026-04-23 10:27 55.29806 8.54653 40305 ft 453 kts 343°
2026-04-23 10:27 55.35736 8.51088 40300 ft 454 kts 343°
2026-04-23 10:28 55.40711 8.48089 40300 ft 454 kts 343°
2026-04-23 10:28 55.46672 8.44484 40298 ft 454 kts 343°
2026-04-23 10:29 55.52591 8.40894 40300 ft 454 kts 343°
2026-04-23 10:29 55.59541 8.36663 40290 ft 455 kts 343°
2026-04-23 10:30 55.65532 8.33004 40301 ft 455 kts 342°
2026-04-23 10:30 55.71482 8.29358 40301 ft 455 kts 342°
2026-04-23 10:31 55.76449 8.26305 40304 ft 456 kts 342°
2026-04-23 10:31 55.83427 8.22003 40311 ft 456 kts 341°
2026-04-23 10:32 55.89383 8.18318 40301 ft 457 kts 341°
2026-04-23 10:32 55.94381 8.15216 40316 ft 456 kts 341°
2026-04-23 10:33 56.00322 8.11518 40317 ft 457 kts 341°
2026-04-23 10:33 56.06318 8.07773 40309 ft 458 kts 341°
2026-04-23 10:34 56.12332 8.04004 40296 ft 457 kts 341°
2026-04-23 10:34 56.18267 8.00272 40304 ft 456 kts 341°
2026-04-23 10:35 56.24231 7.96510 40307 ft 456 kts 341°
2026-04-23 10:35 56.30200 7.92732 40292 ft 457 kts 341°
2026-04-23 10:36 56.36171 7.88941 40290 ft 457 kts 341°
2026-04-23 10:36 56.42136 7.85140 40287 ft 457 kts 341°
2026-04-23 10:37 56.48125 7.81311 40293 ft 457 kts 341°
2026-04-23 10:37 56.54062 7.77503 40281 ft 457 kts 341°
2026-04-23 10:38 56.61034 7.73014 40288 ft 457 kts 341°
2026-04-23 10:38 56.66019 7.69794 40292 ft 457 kts 341°
2026-04-23 10:39 56.71992 7.65925 40292 ft 458 kts 341°
2026-04-23 10:39 56.78942 7.61405 40283 ft 458 kts 341°
2026-04-23 10:40 56.83920 7.58156 40282 ft 457 kts 341°
2026-04-23 10:40 56.90887 7.53594 40282 ft 457 kts 340°
2026-04-23 10:41 56.95845 7.50337 40278 ft 458 kts 340°
2026-04-23 10:41 57.02853 7.45717 40289 ft 459 kts 340°
2026-04-23 10:42 57.07813 7.42436 40278 ft 459 kts 340°
2026-04-23 10:42 57.13823 7.38448 40280 ft 459 kts 340°
2026-04-23 10:43 57.19793 7.34472 40286 ft 458 kts 339°
2026-04-23 10:43 57.26755 7.29818 40270 ft 458 kts 339°
2026-04-23 10:44 57.31712 7.26494 40283 ft 457 kts 339°
2026-04-23 10:44 57.37678 7.22479 40279 ft 458 kts 339°
2026-04-23 10:45 57.43668 7.18435 40268 ft 459 kts 339°
2026-04-23 10:45 57.50637 7.13711 40267 ft 458 kts 339°
2026-04-23 10:46 57.55621 7.10322 40263 ft 458 kts 339°
2026-04-23 10:46 57.61557 7.06271 40260 ft 457 kts 339°
2026-04-23 10:47 57.67485 7.02213 40271 ft 456 kts 339°
2026-04-23 10:47 57.73425 6.98131 40256 ft 456 kts 339°
2026-04-23 10:48 57.79341 6.94052 40261 ft 456 kts 339°
2026-04-23 10:48 57.86289 6.89243 40254 ft 457 kts 339°
2026-04-23 10:49 57.91206 6.85827 40251 ft 457 kts 339°
2026-04-23 10:49 57.97158 6.81680 40250 ft 456 kts 339°
2026-04-23 10:50 58.03104 6.77522 40253 ft 455 kts 339°
2026-04-23 10:50 58.08993 6.73389 40250 ft 454 kts 339°
2026-04-23 10:51 58.14939 6.69202 40264 ft 455 kts 339°
2026-04-23 10:51 58.20851 6.65022 39998 ft 459 kts 338°
2026-04-23 10:52 58.23821 6.62918 39485 ft 456 kts 338°
2026-04-23 10:52 58.26758 6.60834 38992 ft 451 kts 338°
2026-04-23 10:52 58.29676 6.58759 38523 ft 448 kts 338°
2026-04-23 10:52 58.32577 6.56693 38062 ft 448 kts 338°
2026-04-23 10:53 58.35505 6.54603 37603 ft 447 kts 338°
2026-04-23 10:53 58.38380 6.52547 37139 ft 447 kts 338°
2026-04-23 10:53 58.41300 6.50457 36654 ft 447 kts 338°
2026-04-23 10:53 58.44193 6.48381 36161 ft 448 kts 338°
2026-04-23 10:54 58.47105 6.46288 35673 ft 449 kts 338°
2026-04-23 10:54 58.49998 6.44205 35195 ft 449 kts 338°
2026-04-23 10:54 58.52952 6.42074 34670 ft 451 kts 338°
2026-04-23 10:54 58.55843 6.39985 34206 ft 452 kts 338°
2026-04-23 10:55 58.58792 6.37850 33661 ft 453 kts 338°
2026-04-23 10:55 58.61711 6.35733 33178 ft 454 kts 338°
2026-04-23 10:55 58.64690 6.33569 32659 ft 455 kts 336°
2026-04-23 10:55 58.67627 6.31432 32164 ft 453 kts 337°
2026-04-23 10:56 58.70409 6.29404 31686 ft 450 kts 337°
2026-04-23 10:56 58.73329 6.27273 31180 ft 446 kts 337°
2026-04-23 10:56 58.76205 6.25170 30704 ft 442 kts 337°
2026-04-23 10:56 58.79022 6.23106 30230 ft 439 kts 337°
2026-04-23 10:57 58.81884 6.21005 29745 ft 435 kts 337°
2026-04-23 10:57 58.84657 6.18966 29306 ft 430 kts 337°
2026-04-23 10:57 58.87439 6.16916 28827 ft 427 kts 337°
2026-04-23 10:57 58.90200 6.14880 28364 ft 423 kts 337°
2026-04-23 10:58 58.92900 6.12883 27904 ft 419 kts 337°
2026-04-23 10:58 58.95602 6.10883 27452 ft 415 kts 337°
2026-04-23 10:58 58.98290 6.08889 27004 ft 411 kts 337°
2026-04-23 10:58 59.00942 6.06919 26558 ft 408 kts 337°
2026-04-23 10:59 59.03557 6.04973 26115 ft 405 kts 337°
2026-04-23 10:59 59.06162 6.03032 25661 ft 402 kts 338°
2026-04-23 10:59 59.08848 6.01544 25216 ft 399 kts 347°
2026-04-23 10:59 59.11565 6.00528 24776 ft 396 kts 347°
2026-04-23 11:00 59.14252 5.99517 24334 ft 393 kts 347°
2026-04-23 11:00 59.16904 5.98426 23879 ft 387 kts 342°
2026-04-23 11:00 59.20210 5.96105 23139 ft 380 kts 338°
2026-04-23 11:00 59.21855 5.94884 22712 ft 378 kts 338°
2026-04-23 11:01 59.24292 5.93083 22066 ft 375 kts 338°
2026-04-23 11:01 59.26716 5.91291 21446 ft 372 kts 338°
2026-04-23 11:01 59.29093 5.89534 20818 ft 369 kts 338°
2026-04-23 11:01 59.31489 5.87762 20196 ft 365 kts 338°
2026-04-23 11:02 59.33810 5.86045 19479 ft 359 kts 338°
2026-04-23 11:02 59.36132 5.84327 18664 ft 356 kts 338°
2026-04-23 11:02 59.38429 5.82626 17863 ft 353 kts 338°
2026-04-23 11:02 59.40705 5.80939 17093 ft 348 kts 338°
2026-04-23 11:03 59.42944 5.79278 16349 ft 343 kts 338°
2026-04-23 11:03 59.45142 5.77646 15630 ft 338 kts 338°
2026-04-23 11:03 59.47293 5.76047 14897 ft 333 kts 338°
2026-04-23 11:03 59.49452 5.74442 14154 ft 328 kts 338°
2026-04-23 11:04 59.51543 5.72885 13558 ft 323 kts 338°
2026-04-23 11:04 59.53633 5.71327 13144 ft 314 kts 338°
2026-04-23 11:04 59.55652 5.69820 12742 ft 314 kts 338°
2026-04-23 11:04 59.57673 5.68310 12358 ft 308 kts 338°
2026-04-23 11:05 59.59681 5.66809 11794 ft 305 kts 338°
2026-04-23 11:05 59.61632 5.65348 11391 ft 296 kts 338°
2026-04-23 11:05 59.63527 5.63929 11045 ft 288 kts 338°
2026-04-23 11:05 59.65346 5.62564 10705 ft 280 kts 338°
2026-04-23 11:06 59.68863 5.59922 10119 ft 262 kts 339°
2026-04-23 11:06 59.70531 5.58667 9828 ft 255 kts 339°
2026-04-23 11:06 59.72174 5.57428 9568 ft 255 kts 339°
2026-04-23 11:07 59.73822 5.56185 9272 ft 255 kts 339°
2026-04-23 11:07 59.75480 5.54933 8995 ft 248 kts 339°
2026-04-23 11:07 59.77068 5.53733 8722 ft 242 kts 339°
2026-04-23 11:07 59.78615 5.52563 8463 ft 235 kts 339°
2026-04-23 11:08 59.80121 5.51423 8195 ft 228 kts 339°
2026-04-23 11:08 59.81560 5.50332 7961 ft 221 kts 339°
2026-04-23 11:08 59.82983 5.49253 7715 ft 214 kts 340°
2026-04-23 11:08 59.84349 5.48215 7478 ft 208 kts 340°
2026-04-23 11:09 59.85682 5.47203 7249 ft 202 kts 340°
2026-04-23 11:09 59.86979 5.46216 7030 ft 198 kts 340°
2026-04-23 11:09 59.88266 5.45237 6789 ft 198 kts 340°
2026-04-23 11:09 59.89529 5.44275 6592 ft 197 kts 340°
2026-04-23 11:10 59.90807 5.43301 6371 ft 197 kts 340°
2026-04-23 11:10 59.92094 5.42319 6154 ft 196 kts 340°
2026-04-23 11:10 59.93359 5.41354 5929 ft 196 kts 340°
2026-04-23 11:10 59.94624 5.40387 5705 ft 194 kts 341°
2026-04-23 11:11 59.95883 5.39425 5513 ft 194 kts 341°
2026-04-23 11:11 59.97147 5.38459 5285 ft 196 kts 341°
2026-04-23 11:11 59.98402 5.37498 5067 ft 195 kts 341°
2026-04-23 11:11 59.99665 5.36530 4865 ft 195 kts 341°
2026-04-23 11:12 60.01348 5.35240 4561 ft 195 kts 341°
2026-04-23 11:12 60.02184 5.34598 4423 ft 193 kts 340°
2026-04-23 11:12 60.03443 5.33631 4213 ft 193 kts 340°
2026-04-23 11:12 60.04702 5.32663 3995 ft 195 kts 340°
2026-04-23 11:13 60.05963 5.31694 3780 ft 194 kts 340°
2026-04-23 11:13 60.07208 5.30715 3533 ft 192 kts 340°
2026-04-23 11:13 60.08434 5.29748 3303 ft 188 kts 340°
2026-04-23 11:13 60.09615 5.28810 3131 ft 181 kts 340°
2026-04-23 11:14 60.10780 5.27913 2949 ft 179 kts 343°
2026-04-23 11:14 60.11969 5.27407 2929 ft 167 kts 352°
2026-04-23 11:14 60.13063 5.27099 2933 ft 147 kts 352°
2026-04-23 11:14 60.14060 5.26852 2950 ft 144 kts 353°
2026-04-23 11:15 60.15061 5.26589 2814 ft 146 kts 351°
2026-04-23 11:15 60.16057 5.26287 2628 ft 145 kts 352°
2026-04-23 11:15 60.17053 5.25996 2399 ft 145 kts 351°
2026-04-23 11:15 60.18039 5.25640 2195 ft 142 kts 348°
2026-04-23 11:16 60.18978 5.25244 2027 ft 138 kts 348°
2026-04-23 11:16 60.19926 5.24895 1878 ft 138 kts 350°
2026-04-23 11:16 60.20875 5.24605 1683 ft 138 kts 352°
2026-04-23 11:16 60.21814 5.24357 1484 ft 137 kts 351°
2026-04-23 11:17 60.22713 5.24045 1317 ft 120 kts 347°
2026-04-23 11:17 60.23481 5.23749 1220 ft 112 kts 352°
2026-04-23 11:17 60.24253 5.23519 1086 ft 111 kts 351°
2026-04-23 11:17 60.25007 5.23259 901 ft 110 kts 347°
2026-04-23 11:18 60.25761 5.22992 756 ft 110 kts 349°
2026-04-23 11:18 60.26522 5.22737 568 ft 110 kts 351°
2026-04-23 11:18 60.27275 5.22503 382 ft 112 kts 349°
2026-04-23 11:18 60.28050 5.22245 231 ft 113 kts 350°
2026-04-23 11:19 60.28790 5.21997 161 ft 95 kts 349°
2026-04-23 11:19 60.29320 5.21820 151 ft 64 kts 349°
2026-04-23 11:19 60.29641 5.21712 142 ft 22 kts 350°
2026-04-23 11:19 60.29708 5.21815 145 ft 13 kts 79°
2026-04-23 11:20 60.29723 5.22000 149 ft 13 kts 80°
2026-04-23 11:20 60.29739 5.22197 154 ft 13 kts 80°
2026-04-23 11:20 60.29742 5.22356 157 ft 9 kts 133°
2026-04-23 11:20 60.29665 5.22392 158 ft 12 kts 171°
2026-04-23 11:21 60.29609 5.22374 158 ft 9 kts 249°
2026-04-23 11:21 60.29602 5.22285 156 ft 0 kts 260°